KW1M Weather Reports


Display with metric or nautical units.
time (UTC)temp
F
wind
direction
speed
MPH
gust
MPH
rain 1hr
in
rain 24hr
in
rain mn
in
humidity
%
barometer
mb
20260905120026 61 254 0.0 0.0 0.00 0.00 0.00 94 1010.0
20260905114523 60 255 0.0 0.0 0.00 0.00 0.00 95 1009.9
20260905113023 60 254 0.0 0.0 0.00 0.00 0.00 96 1009.8
20260905111521 59 255 0.0 0.0 0.00 0.00 0.00 96 1009.7
20260905110017 59 255 0.0 0.0 0.00 0.00 0.00 97 1009.6
20260905104519 58 255 0.0 0.0 0.00 0.00 0.00 96 1009.6
20260905103014 58 255 0.0 0.0 0.00 0.00 0.00 96 1009.4
20260905101513 58 255 0.0 0.0 0.00 0.00 0.00 96 1009.3
20260905100012 58 255 0.0 0.0 0.00 0.00 0.00 96 1009.3
20260905094511 58 255 0.0 0.0 0.00 0.00 0.00 96 1009.2
20260905093010 58 288 0.0 0.0 0.00 0.00 0.00 96 1009.1
20260905091509 58 288 0.0 0.0 0.00 0.00 0.00 95 1008.9
20260905090010 58 288 0.0 0.0 0.00 0.00 0.00 95 1009.0
20260905084506 59 288 0.0 0.0 0.00 0.01 0.00 95 1008.9
20260905083005 59 288 0.0 0.0 0.00 0.01 0.00 94 1008.8
20260905081504 59 288 0.0 0.0 0.00 0.01 0.00 94 1009.0
20260905080005 59 288 0.0 0.0 0.00 0.01 0.00 94 1008.9
20260905074502 59 240 0.0 0.0 0.00 0.01 0.00 94 1008.8
20260905073110 59 240 0.0 0.0 0.00 0.01 0.00 94 1009.0
20260905071601 60 240 0.0 0.0 0.00 0.01 0.00 94 1009.0
20260905070058 60 240 0.0 1.0 0.00 0.01 0.00 94 1009.3
20260905064556 59 236 0.0 0.0 0.00 0.01 0.00 94 1009.4
20260905063055 59 221 0.0 0.0 0.00 0.01 0.00 94 1009.3
20260905061604 59 174 0.0 0.0 0.00 0.01 0.00 94 1009.3
20260905060104 59 186 0.0 0.0 0.00 0.01 0.00 93 1009.4
20260905054557 60 186 0.0 0.0 0.00 0.01 0.00 92 1009.4
20260905053048 60 186 0.0 0.0 0.00 0.01 0.00 91 1009.5
20260905051603 60 186 0.0 0.0 0.00 0.01 0.00 90 1009.6
20260905050045 61 186 0.0 0.0 0.00 0.01 0.00 90 1009.5
20260905044545 61 186 0.0 1.0 0.00 0.01 0.00 89 1009.5
20260905043042 61 143 0.0 0.0 0.00 0.01 0.00 88 1009.4
20260905041540 62 104 0.0 0.0 0.00 0.01 0.00 87 1009.7
20260905040037 62 104 0.0 0.0 0.00 0.01 0.00 86 1009.5
20260905034537 63 105 0.0 0.0 0.00 0.01 0.01 84 1009.4
20260905033035 63 105 0.0 0.0 0.00 0.01 0.01 85 1009.6
20260905031540 64 105 0.0 0.0 0.00 0.01 0.01 84 1009.6
20260905030033 64 105 0.0 0.0 0.00 0.01 0.01 82 1009.7
20260905024554 64 118 0.0 0.0 0.00 0.01 0.01 82 1009.8
20260905023032 64 40 0.0 0.0 0.00 0.01 0.01 83 1009.9
20260905021532 64 51 0.0 0.0 0.00 0.01 0.01 83 1009.9
20260905020034 65 53 0.0 0.0 0.00 0.01 0.01 82 1010.1
20260905014530 65 53 0.0 0.0 0.00 0.01 0.01 81 1010.1
20260905013035 65 53 0.0 0.0 0.00 0.01 0.01 80 1010.1
20260905011529 65 26 0.0 0.0 0.00 0.01 0.01 81 1010.0
20260905010029 66 26 0.0 0.0 0.00 0.01 0.01 79 1010.1
20260905004530 66 26 0.0 0.0 0.00 0.01 0.01 78 1010.1
20260905003029 67 25 0.0 0.0 0.00 0.01 0.01 76 1010.1
20260905001528 68 27 0.0 0.0 0.00 0.01 0.01 73 1009.9
20260905000030 68 346 0.0 1.0 0.00 0.01 0.01 73 1009.8
20260904234529 68 56 0.0 0.0 0.00 0.01 0.01 75 1009.7
20260904233026 68 77 0.0 0.0 0.00 0.01 0.01 74 1009.6
20260904231525 70 78 0.0 0.0 0.00 0.01 0.01 71 1009.5
20260904230027 72 110 0.0 0.0 0.00 0.01 0.01 69 1009.5
20260904224523 74 110 0.0 0.0 0.00 0.01 0.01 64 1009.4
20260904223024 76 314 0.0 0.0 0.00 0.01 0.01 64 1009.5
20260904221522 76 300 0.0 1.0 0.00 0.01 0.01 62 1009.3
20260904220022 77 49 0.0 0.0 0.00 0.01 0.01 62 1009.3
20260904214520 76 229 0.0 1.0 0.00 0.01 0.01 62 1009.3
20260904213020 75 86 0.0 3.0 0.00 0.01 0.01 63 1009.3
20260904211520 75 127 0.0 1.0 0.00 0.01 0.01 64 1009.2
20260904210020 77 89 0.0 2.0 0.00 0.01 0.01 59 1009.2
20260904204522 78 114 0.0 4.0 0.00 0.01 0.01 55 1009.1
20260904203026 80 208 1.0 4.0 0.00 0.01 0.01 53 1009.0
20260904201533 80 117 0.0 3.0 0.00 0.01 0.01 53 1009.1
20260904200031 79 302 0.0 4.0 0.00 0.01 0.01 57 1009.2
20260904194510 77 148 0.0 4.0 0.00 0.01 0.01 59 1009.2
20260904193011 76 324 0.0 1.0 0.00 0.01 0.01 56 1009.5
20260904191513 77 302 0.0 2.0 0.00 0.01 0.01 61 1009.5
20260904190007 79 325 0.0 8.0 0.00 0.01 0.01 57 1009.4
20260904184504 78 326 0.0 4.0 0.00 0.01 0.01 61 1009.5
20260904183001 77 308 0.0 2.0 0.00 0.01 0.01 61 1009.9
20260904181502 76 321 0.0 1.0 0.00 0.01 0.01 63 1009.8
20260904180001 78 319 0.0 3.0 0.00 0.01 0.01 60 1009.6
20260904174602 79 340 1.0 4.0 0.00 0.01 0.01 58 1009.7
20260904173058 79 13 0.0 5.0 0.00 0.01 0.01 59 1009.8
20260904171617 79 331 0.0 5.0 0.00 0.01 0.01 60 1009.9
20260904170052 78 293 0.0 3.0 0.00 0.01 0.01 67 1009.9
20260904164550 77 300 0.0 5.0 0.00 0.01 0.01 65 1009.9
20260904163054 78 293 0.0 6.0 0.00 0.01 0.01 62 1010.1
20260904161556 79 90 0.0 6.0 0.00 0.01 0.01 65 1010.1
20260904160043 78 319 0.0 1.0 0.00 0.01 0.01 66 1010.2
20260904154540 77 344 0.0 0.0 0.00 0.01 0.01 70 1010.4
20260904153102 77 149 0.0 2.0 0.00 0.01 0.01 70 1010.4
20260904151540 77 323 0.0 4.0 0.00 0.01 0.01 71 1010.6
20260904150036 75 347 0.0 1.0 0.00 0.01 0.01 76 1010.7
20260904144530 73 288 0.0 1.0 0.00 0.01 0.01 81 1010.7
20260904143025 72 96 0.0 6.0 0.00 0.01 0.01 85 1010.7
20260904141521 70 205 0.0 4.0 0.00 0.01 0.01 88 1010.8
20260904140017 69 130 0.0 3.0 0.00 0.01 0.01 93 1011.0
20260904134514 67 117 0.0 4.0 0.00 0.01 0.01 96 1011.0
20260904133009 66 272 0.0 3.0 0.00 0.01 0.01 98 1011.0
20260904131506 65 210 0.0 0.0 0.00 0.01 0.01 98 1011.0
20260904130006 64 219 0.0 3.0 0.00 0.01 0.01 98 1010.9
20260904124505 64 171 0.0 0.0 0.00 0.01 0.01 98 1010.9
20260904123005 64 198 0.0 0.0 0.00 0.01 0.01 98 1010.9
20260904121504 63 159 0.0 2.0 0.00 0.01 0.01 98 1011.0